Regional Weather Roundup
Issued by NWS

Home | Current Version | Previous Version | Text Only | Print | Product List | Glossary Off
Versions: 1 2 3 4 5 6 7 8 9 10 11 12 13 14 15 16 17 18 19 20 21 22 23 24 25 26 27 28 29 30 31 32 33 34 35 36 37 38 39 40 41 42 43 44 45 46 47 48 49 50

000
ASUS43 KOAX 230602
RWRNE

WEATHER ROUNDUP FOR NEBRASKA
NATIONAL WEATHER SERVICE OMAHA NE
1200 AM CST MON JAN 23 2017

NOTES: SATELLITE DATA IS BEING USED TO AUGMENT CLOUD COVER ABOVE
       12000 FEET.
       "FAIR" INDICATES FEW OR NO CLOUDS BELOW 12,000 FEET WITH NO
       SIGNIFICANT WEATHER AND/OR OBSTRUCTIONS TO VISIBILITY.

  * THESE STATIONS DO NOT REPORT WEATHER SUCH AS RAIN...SNOW OR FOG.

NEZ001>004-019>022-054>056-230700-
NEBRASKA PANHANDLE

CITY           SKY/WX    TMP DP  RH WIND       PRES   REMARKS
SCOTTSBLUFF    CLEAR     25  19  78 E8        29.81F WCI  16
6HR MIN TEMP:  24; 6HR MAX TEMP:  38;

ALLIANCE       CLEAR     19  15  84 S7        29.81S WCI  10
6HR MIN TEMP:  18; 6HR MAX TEMP:  35;

CHADRON        CLOUDY    22  19  89 CALM      29.80F
6HR MIN TEMP:  21; 6HR MAX TEMP:  35;

KIMBALL        CLOUDY    27  23  84 SE6       29.80F WCI  21
SIDNEY         CLEAR     24  19  81 SW7       29.84F WCI  16
6HR MIN TEMP:  20; 6HR MAX TEMP:  35;

$$

NEZ057>060-069>072-079>082-230700-
SOUTHWEST NEBRASKA

CITY           SKY/WX    TMP DP  RH WIND       PRES   REMARKS
NORTH PLATTE   CLEAR     22  19  89 CALM      29.87F
6HR MIN TEMP:  22; 6HR MAX TEMP:  36;

IMPERIAL       CLOUDY    27  22  81 W5        29.88F WCI  22
6HR MIN TEMP:  26; 6HR MAX TEMP:  40;

LEXINGTON      CLEAR     27  24  88 W3        29.90S
MCCOOK         CLEAR     28  24  85 W8        29.90S WCI  20
6HR MIN TEMP:  26; 6HR MAX TEMP:  42;

OGALLALA       CLEAR     24  22  92 W5        29.86S WCI  18
$$

NEZ005>010-023>029-035>040-094-230700-
NORTH CENTRAL NEBRASKA

CITY           SKY/WX    TMP DP  RH WIND       PRES   REMARKS
VALENTINE      CLEAR     20  17  88 CALM      29.86F
6HR MIN TEMP:  19; 6HR MAX TEMP:  35;

AINSWORTH      CLEAR     21  20  94 CALM      29.87S
BROKEN BOW     CLEAR     28  25  88 W3        29.88S
6HR MIN TEMP:  28; 6HR MAX TEMP:  38;

O`NEILL        CLOUDY    26  26 100 NW6       29.91R FOG     WCI  19
ORD            CLEAR     24  21  88 CALM      29.88F
6HR MIN TEMP:  23; 6HR MAX TEMP:  36;

THEDFORD       CLEAR     25  22  88 CALM      29.86F
$$

NEZ041-046>049-061>064-073>077-083>087-230700-
SOUTH CENTRAL NEBRASKA

CITY           SKY/WX    TMP DP  RH WIND       PRES   REMARKS
GRAND ISLAND   CLEAR     28  27  96 NW3       29.90S
6HR MIN TEMP:  27; 6HR MAX TEMP:  39;

AURORA         CLEAR     29  27  93 NW5       29.89F WCI  24
HASTINGS       CLEAR     29  25  85 NW5       29.91S WCI  24
6HR MIN TEMP:  29; 6HR MAX TEMP:  40;

HEBRON         CLEAR     26  25  97 CALM      29.91S
HOLDREGE       CLEAR     30  27  89 N3        29.90S
KEARNEY *      CLEAR     30  27  86 CALM      29.90S
YORK           CLEAR     28  28 100 N5        29.90S WCI  23
$$

NEZ011>018-030>034-042>045-230700-
NORTHEAST NEBRASKA

CITY           SKY/WX    TMP DP  RH WIND       PRES   REMARKS
NORFOLK        CLOUDY    29  25  85 NW10      29.91R WCI  20
6HR MIN TEMP:  25; 6HR MAX TEMP:  35;

ALBION         CLEAR     27  22  81 N5        29.90S WCI  22
BLAIR          CLOUDY    30  28  92 N14G20    29.88S WCI  20
FREMONT        PTCLDY    29  29 100 N3        29.91S
TEKAMAH        CLOUDY    31  27  85 NW10      29.90F WCI  22
6HR MIN TEMP:  30; 6HR MAX TEMP:  34;

WAYNE          CLOUDY    31  28  90 NW9       29.90S WCI  23
$$

NEZ050>053-065>068-078-088>093-230700-
SOUTHEAST NEBRASKA

CITY           SKY/WX    TMP DP  RH WIND       PRES   REMARKS
LINCOLN        CLEAR     24  22  91 N5        29.92R WCI  18
6HR MIN TEMP:  23; 6HR MAX TEMP:  36;

OMAHA EPPLEY   CLOUDY    31  26  82 N14       29.90S FOG     WCI  21
6HR MIN TEMP:  25; 6HR MAX TEMP:  34;

BEATRICE         N/A     26  26  99 W3        29.91R FOG
FALLS CITY     CLEAR     28  27  96 W3        29.90R
6HR MIN TEMP:  28; 6HR MAX TEMP:  38;

NEBRASKA CITY  CLEAR     32  31  96 NW5       29.89S WCI  27
PLATTSMOUTH    CLEAR     31  28  90 NW7       29.89R FOG     WCI  24
$$

NEZ044-045-051>053-067-230700-
OMAHA AREA

CITY           SKY/WX    TMP DP  RH WIND       PRES   REMARKS
OMAHA EPPLEY   CLOUDY    31  26  82 N14       29.90S FOG     WCI  21
6HR MIN TEMP:  25; 6HR MAX TEMP:  34;

BLAIR          CLOUDY    30  28  92 N14G20    29.88S WCI  20
FREMONT        PTCLDY    29  29 100 N3        29.91S
MILLARD        PTCLDY    30  29  95 NW5       29.90S FOG     WCI  25
OFFUTT AFB     PTCLDY    25  25 100 CALM      29.89S FOG
PLATTSMOUTH    CLEAR     31  28  90 NW7       29.89R FOG     WCI  24
WAHOO          FAIR      30  28  92 N7        29.90S WCI  24
$$



USA.gov is the U.S. government's official web portal to all federal, state and local government web resources and services.